| time (UTC) | temp F | wind direction | speed MPH | gust MPH | rain 1hr in | rain 24hr in | rain mn in | humidity % | barometer mb |
| 20260509153038 | 64 | 173 | 0.0 | 1.0 | 0.00 | 1.93 | 1.14 | 95 | 1013.3 |
| 20260509151524 | 64 | 23 | 0.0 | 1.0 | 0.00 | 1.93 | 1.14 | 95 | 1013.2 |
| 20260509150030 | 64 | 23 | 0.0 | 1.0 | 0.01 | 1.94 | 1.14 | 95 | 1013.2 |
| 20260509144527 | 63 | 23 | 0.0 | 2.0 | 0.04 | 1.94 | 1.14 | 95 | 1013.3 |
| 20260509143020 | 63 | 154 | 0.0 | 0.0 | 0.12 | 1.94 | 1.14 | 96 | 1013.1 |
| 20260509141533 | 63 | 145 | 0.0 | 1.0 | 0.19 | 1.94 | 1.14 | 95 | 1012.6 |
| 20260509140026 | 63 | 156 | 1.0 | 7.0 | 0.25 | 1.93 | 1.13 | 95 | 1012.5 |
| 20260509134528 | 63 | 144 | 3.0 | 8.0 | 0.27 | 1.90 | 1.10 | 95 | 1012.5 |
| 20260509133022 | 63 | 116 | 1.0 | 5.0 | 0.24 | 1.82 | 1.02 | 95 | 1012.9 |
| 20260509131523 | 63 | 153 | 2.0 | 3.0 | 0.21 | 1.75 | 0.95 | 95 | 1013.2 |
| 20260509130007 | 63 | 110 | 0.0 | 2.0 | 0.17 | 1.68 | 0.88 | 95 | 1013.7 |
| 20260509124510 | 63 | 321 | 0.0 | 0.0 | 0.25 | 1.63 | 0.83 | 95 | 1014.5 |
| 20260509123016 | 63 | 296 | 0.0 | 2.0 | 0.48 | 1.58 | 0.78 | 95 | 1014.6 |
| 20260509121518 | 63 | 323 | 1.0 | 3.0 | 0.71 | 1.54 | 0.74 | 95 | 1014.1 |
| 20260509120023 | 63 | 282 | 2.0 | 7.0 | 0.70 | 1.51 | 0.71 | 95 | 1013.7 |
| 20260509114504 | 63 | 329 | 2.0 | 6.0 | 0.58 | 1.38 | 0.58 | 95 | 1014.3 |
| 20260509113012 | 63 | 264 | 3.0 | 17.0 | 0.30 | 1.10 | 0.30 | 96 | 1014.9 |
| 20260509111514 | 64 | 300 | 7.0 | 13.0 | 0.03 | 0.83 | 0.03 | 96 | 1014.1 |
| 20260509110020 | 64 | 174 | 0.0 | 1.0 | 0.01 | 0.81 | 0.01 | 96 | 1012.0 |
| 20260509104526 | 64 | 113 | 0.0 | 1.0 | 0.00 | 0.80 | 0.00 | 96 | 1011.5 |
| 20260509103009 | 64 | 127 | 0.0 | 1.0 | 0.00 | 0.80 | 0.00 | 96 | 1011.3 |
| 20260509101515 | 63 | 56 | 0.0 | 2.0 | 0.00 | 0.80 | 0.00 | 96 | 1011.5 |
| 20260509100019 | 63 | 99 | 0.0 | 3.0 | 0.00 | 0.80 | 0.00 | 96 | 1011.2 |
| 20260509094523 | 63 | 335 | 0.0 | 3.0 | 0.00 | 0.80 | 0.00 | 96 | 1011.4 |
| 20260509093024 | 63 | 31 | 0.0 | 2.0 | 0.00 | 0.80 | 0.00 | 96 | 1011.2 |
| 20260509091512 | 63 | 174 | 1.0 | 2.0 | 0.00 | 0.80 | 0.00 | 96 | 1011.2 |
| 20260509090021 | 63 | 169 | 0.0 | 0.0 | 0.00 | 0.80 | 0.00 | 96 | 1010.9 |
| 20260509084522 | 63 | 46 | 0.0 | 0.0 | 0.00 | 0.80 | 0.00 | 96 | 1011.0 |
| 20260509083024 | 63 | 346 | 0.0 | 0.0 | 0.00 | 0.80 | 0.00 | 96 | 1011.4 |
| 20260509081528 | 63 | 332 | 0.0 | 0.0 | 0.00 | 0.80 | 0.00 | 96 | 1011.9 |
| 20260509080013 | 63 | 99 | 0.0 | 0.0 | 0.00 | 0.80 | 0.00 | 96 | 1011.8 |
| 20260509074516 | 63 | 295 | 0.0 | 0.0 | 0.00 | 0.80 | 0.00 | 96 | 1012.1 |
| 20260509073033 | 63 | 295 | 0.0 | 2.0 | 0.00 | 0.80 | 0.00 | 96 | 1012.2 |
| 20260509071524 | 63 | 39 | 0.0 | 0.0 | 0.00 | 0.80 | 0.00 | 96 | 1012.3 |
| 20260509070028 | 63 | 129 | 0.0 | 0.0 | 0.00 | 0.80 | 0.00 | 96 | 1011.9 |
| 20260509064514 | 63 | 129 | 0.0 | 0.0 | 0.00 | 0.80 | 0.00 | 96 | 1012.0 |
| 20260509063028 | 63 | 129 | 0.0 | 1.0 | 0.00 | 0.80 | 0.00 | 96 | 1012.1 |
| 20260509061520 | 63 | 117 | 0.0 | 1.0 | 0.00 | 0.80 | 0.00 | 96 | 1012.6 |
| 20260509060028 | 63 | 34 | 0.0 | 3.0 | 0.00 | 0.80 | 0.00 | 96 | 1012.8 |
| 20260509054527 | 63 | 119 | 0.0 | 0.0 | 0.00 | 0.80 | 0.00 | 96 | 1012.5 |
| 20260509053024 | 63 | 119 | 0.0 | 1.0 | 0.00 | 0.80 | 0.00 | 96 | 1012.8 |
| 20260509051521 | 63 | 156 | 0.0 | 2.0 | 0.00 | 0.80 | 0.00 | 96 | 1013.0 |
| 20260509050024 | 62 | 119 | 0.0 | 1.0 | 0.00 | 0.80 | 0.00 | 96 | 1012.9 |
| 20260509044524 | 62 | 174 | 0.0 | 2.0 | 0.00 | 0.80 | 0.80 | 96 | 1012.5 |
| 20260509043029 | 62 | 115 | 0.0 | 0.0 | 0.00 | 0.80 | 0.80 | 96 | 1012.7 |
| 20260509041517 | 62 | 134 | 0.0 | 0.0 | 0.00 | 0.80 | 0.80 | 95 | 1012.7 |
| 20260509040021 | 62 | 143 | 0.0 | 0.0 | 0.00 | 0.80 | 0.80 | 95 | 1012.8 |
| 20260509034524 | 62 | 174 | 0.0 | 0.0 | 0.00 | 0.80 | 0.80 | 96 | 1013.1 |
| 20260509033010 | 62 | 144 | 0.0 | 0.0 | 0.00 | 0.80 | 0.80 | 95 | 1013.1 |
| 20260509031514 | 62 | 158 | 0.0 | 0.0 | 0.00 | 0.80 | 0.80 | 95 | 1013.1 |
| 20260509030020 | 62 | 130 | 0.0 | 0.0 | 0.00 | 0.80 | 0.80 | 95 | 1012.7 |
| 20260509024524 | 62 | 110 | 0.0 | 0.0 | 0.00 | 0.80 | 0.80 | 95 | 1012.8 |
| 20260509023025 | 63 | 110 | 0.0 | 0.0 | 0.00 | 0.80 | 0.80 | 95 | 1012.5 |
| 20260509021510 | 63 | 59 | 0.0 | 0.0 | 0.00 | 0.80 | 0.80 | 95 | 1012.4 |
| 20260509020014 | 63 | 109 | 0.0 | 0.0 | 0.00 | 0.80 | 0.80 | 95 | 1012.4 |
| 20260509014526 | 63 | 283 | 0.0 | 1.0 | 0.00 | 0.80 | 0.80 | 95 | 1012.3 |
| 20260509013023 | 63 | 119 | 0.0 | 0.0 | 0.00 | 0.80 | 0.80 | 95 | 1012.0 |
| 20260509011526 | 64 | 122 | 0.0 | 2.0 | 0.00 | 0.80 | 0.80 | 95 | 1012.3 |
| 20260509010034 | 64 | 9 | 1.0 | 1.0 | 0.00 | 0.80 | 0.80 | 94 | 1012.7 |
| 20260509004530 | 64 | 297 | 1.0 | 2.0 | 0.00 | 0.80 | 0.80 | 94 | 1012.9 |
| 20260509003021 | 64 | 356 | 0.0 | 1.0 | 0.00 | 0.80 | 0.80 | 94 | 1012.9 |
| 20260509001526 | 64 | 313 | 0.0 | 0.0 | 0.00 | 0.80 | 0.80 | 94 | 1012.5 |
| 20260509000026 | 64 | 312 | 0.0 | 0.0 | 0.00 | 0.80 | 0.80 | 94 | 1012.5 |
| 20260508234530 | 64 | 311 | 0.0 | 1.0 | 0.00 | 0.80 | 0.80 | 94 | 1012.5 |
| 20260508233034 | 64 | 110 | 0.0 | 1.0 | 0.00 | 0.80 | 0.80 | 93 | 1012.9 |
| 20260508231522 | 64 | 174 | 0.0 | 1.0 | 0.00 | 0.80 | 0.80 | 93 | 1012.8 |
| 20260508230025 | 64 | 174 | 0.0 | 1.0 | 0.00 | 0.80 | 0.80 | 94 | 1012.9 |
| 20260508224528 | 64 | 98 | 1.0 | 2.0 | 0.02 | 0.80 | 0.80 | 94 | 1012.4 |
| 20260508223004 | 64 | 173 | 1.0 | 4.0 | 0.03 | 0.80 | 0.80 | 94 | 1012.5 |
| 20260508221505 | 63 | 93 | 1.0 | 4.0 | 0.03 | 0.80 | 0.80 | 94 | 1012.5 |
| 20260508220003 | 63 | 238 | 2.0 | 7.0 | 0.05 | 0.80 | 0.80 | 94 | 1012.8 |
| 20260508214514 | 63 | 84 | 2.0 | 3.0 | 0.06 | 0.78 | 0.78 | 94 | 1012.5 |
| 20260508213004 | 63 | 134 | 0.0 | 8.0 | 0.08 | 0.77 | 0.77 | 94 | 1013.1 |
| 20260508211504 | 62 | 174 | 3.0 | 7.0 | 0.12 | 0.77 | 0.77 | 94 | 1012.7 |
| 20260508210004 | 62 | 174 | 1.0 | 10.0 | 0.11 | 0.75 | 0.75 | 95 | 1013.5 |
| 20260508204504 | 61 | 160 | 2.0 | 7.0 | 0.12 | 0.72 | 0.72 | 94 | 1014.1 |
| 20260508203004 | 61 | 109 | 0.0 | 0.0 | 0.12 | 0.69 | 0.69 | 94 | 1015.3 |
| 20260508201503 | 61 | 75 | 0.0 | 0.0 | 0.11 | 0.65 | 0.65 | 94 | 1015.8 |
| 20260508200006 | 61 | 103 | 0.0 | 3.0 | 0.14 | 0.64 | 0.64 | 94 | 1015.4 |
| 20260508194507 | 61 | 148 | 1.0 | 5.0 | 0.12 | 0.60 | 0.60 | 94 | 1015.4 |
| 20260508193005 | 61 | 143 | 1.0 | 3.0 | 0.12 | 0.57 | 0.57 | 94 | 1015.3 |
| 20260508191503 | 61 | 10 | 0.0 | 1.0 | 0.13 | 0.54 | 0.54 | 94 | 1014.7 |
| 20260508190005 | 61 | 308 | 2.0 | 3.0 | 0.14 | 0.50 | 0.50 | 93 | 1014.9 |
| 20260508184504 | 61 | 63 | 1.0 | 4.0 | 0.14 | 0.48 | 0.48 | 93 | 1014.1 |
| 20260508183004 | 61 | 15 | 1.0 | 3.0 | 0.15 | 0.45 | 0.45 | 93 | 1015.2 |
| 20260508181505 | 61 | 113 | 1.0 | 4.0 | 0.20 | 0.41 | 0.41 | 93 | 1015.8 |
| 20260508180007 | 61 | 210 | 3.0 | 6.0 | 0.19 | 0.36 | 0.36 | 93 | 1015.8 |
| 20260508174509 | 61 | 146 | 3.0 | 4.0 | 0.21 | 0.34 | 0.34 | 93 | 1015.9 |
| 20260508173008 | 61 | 176 | 1.0 | 5.0 | 0.21 | 0.30 | 0.30 | 93 | 1016.2 |
| 20260508171504 | 61 | 6 | 2.0 | 4.0 | 0.16 | 0.21 | 0.21 | 92 | 1016.9 |
| 20260508170008 | 61 | 33 | 2.0 | 5.0 | 0.15 | 0.17 | 0.17 | 93 | 1017.0 |
| 20260508164507 | 61 | 322 | 2.0 | 5.0 | 0.12 | 0.13 | 0.13 | 93 | 1016.7 |
| 20260508163014 | 62 | 318 | 0.0 | 1.0 | 0.08 | 0.09 | 0.09 | 92 | 1016.7 |
| 20260508161508 | 62 | 139 | 0.0 | 0.0 | 0.04 | 0.05 | 0.05 | 91 | 1017.2 |
| 20260508160008 | 62 | 278 | 0.0 | 2.0 | 0.02 | 0.02 | 0.02 | 90 | 1017.4 |
| 20260508154508 | 62 | 6 | 0.0 | 3.0 | 0.01 | 0.01 | 0.01 | 89 | 1016.4 |